Location: Central Falls
(41.8900°N, 71.3929°W)
Time: 11:53:03
(UTC+00:00)

A-11 Canister half - Pass Details

Date: 04 December 2023
Orbit: 1526 x 1682 km, 47.3° (Epoch: 20 February)

Event Time Altitude Azimuth Distance (km) Brightness Sun altitude
Rises 22:17:34 0° 204° (SSW) 4,899 12.3 -11.4°
Reaches altitude 10° 22:21:01 10° 196° (SSW) 3,924 11.6 -12.0°
Maximum altitude 22:29:57 38° 133° (SE) 2,391 9.8 -13.6°
Enters shadow 22:36:29 18° 79° (E) 3,310 10.1 -14.8°
Drops below altitude 10° 22:38:53 10° 71° (ENE) 3,929 - -15.2°
Sets 22:42:19 0° 64° (ENE) 4,906 - -15.8°
